Eureka, NV

3:13 AM PDT on June 29, 2017 (GMT -0700)
Eureka

Weather History for KP68 - March, 2013

Change the Weather History Date:

Tuesday, March 26, 2013

  Actual Average Record
Temperature  
Mean Temperature 48 °F 39 °F  
Max Temperature 62 °F 53 °F 72 °F (1988)
Min Temperature 34 °F 25 °F 4 °F (1985)
Degree Days  
Heating Degree Days 17 26  
Month to date heating degree days 632 745  
Since 1 July heating degree days 5720 6030  
Cooling Degree Days 0 0  
Month to date cooling degree days 0 0  
Year to date cooling degree days 0 0  
Moisture  
Dew Point 18 °F    
Average Humidity 35    
Maximum Humidity 56    
Minimum Humidity 14    
Precipitation  
Precipitation 0.00 in 0.03 in 0.41 in (1989)
Month to date precipitation 0.08 0.76  
Year to date precipitation 1.99 2.36  
Sea Level Pressure  
Sea Level Pressure 29.81 in    
Wind  
Wind Speed 7 mph (WSW)    
Max Wind Speed 21 mph    
Max Gust Speed 28 mph    
T = Trace of Precipitation, MM = Missing Value Source: NWS Daily Summary

Daily Weather History Graph

Daily Weather History Graph

Search for Another Location

Airport or City:

Trip Planner

Search our weather history database for the weather conditions in past years. The results will help you decide how hot, cold, wet, or windy it might be!

Date:

Astronomy

Mar. 26, 2013 Rise Set
Actual Time 6:37 AM PDT 7:02 PM PDT
Civil Twilight 6:10 AM PDT 7:29 PM PDT
Nautical Twilight 5:38 AM PDT 8:00 PM PDT
Astronomical Twilight 5:06 AM PDT 8:33 PM PDT
Moon 6:43 PM PDT (3/26) 5:56 AM PDT (3/26)
Length of Visible Light 13h 18m
Length of Day
12h 25m
Full, 100% of the Moon is Illuminated
Mar 26
Full
Mar 27
Full
Apr 2
Last Quarter
Apr 10
New
Apr 18
First Quarter

Hourly Weather History & Observations

Time (PDT) Temp. Windchill Dew Point Humidity Pressure Visibility Wind Dir Wind Speed Gust Speed Precip Events Conditions
12:53 AM 37.9 °F 31.5 °F 17.1 °F 43% 29.80 in - SSW 9.2 mph - N/A   Unknown
1:53 AM 39.9 °F 33.9 °F 12.9 °F 33% 29.78 in - SSW 9.2 mph - N/A   Unknown
2:53 AM 37.9 °F 32.1 °F 14.0 °F 38% 29.77 in - SW 8.1 mph - N/A   Unknown
3:53 AM 39.0 °F 34.8 °F 16.0 °F 39% 29.77 in - SSE 5.8 mph - N/A   Unknown
4:53 AM 39.0 °F 34.0 °F 15.1 °F 38% 29.78 in - SSW 6.9 mph - N/A   Unknown
5:53 AM 39.0 °F 35.7 °F 16.0 °F 39% 29.78 in - SSE 4.6 mph - N/A   Unknown
6:53 AM 36.0 °F 32.1 °F 18.0 °F 48% 29.82 in - SSW 4.6 mph - N/A   Unknown
7:53 AM 39.0 °F 34.8 °F 19.0 °F 45% 29.83 in - South 5.8 mph - N/A   Unknown
8:53 AM 45.0 °F - 18.0 °F 34% 29.85 in - Calm Calm - N/A   Unknown
9:53 AM 51.1 °F - 16.0 °F 25% 29.84 in - Calm Calm - N/A   Unknown
10:53 AM 55.0 °F - 16.0 °F 22% 29.84 in - West 12.7 mph 19.6 mph N/A   Unknown
11:53 AM 54.0 °F - 16.0 °F 22% 29.82 in - SSW 9.2 mph - N/A   Unknown
12:53 PM 57.9 °F - 15.1 °F 19% 29.80 in - WNW 9.2 mph 21.9 mph N/A   Unknown
1:53 PM 60.1 °F - 16.0 °F 18% 29.77 in - NW 11.5 mph 19.6 mph N/A   Unknown
2:53 PM 62.1 °F - 14.0 °F 15% 29.75 in - WSW 18.4 mph - N/A   Unknown
3:53 PM 61.0 °F - 17.1 °F 18% 29.75 in - NNW 9.2 mph 27.6 mph N/A   Unknown
4:53 PM 57.9 °F - 19.0 °F 22% 29.75 in - WNW 10.4 mph - N/A   Unknown
5:53 PM 59.0 °F - 19.9 °F 22% 29.76 in - NNW 9.2 mph 18.4 mph N/A   Unknown
6:53 PM 53.1 °F - 21.0 °F 29% 29.81 in - NW 10.4 mph - N/A   Unknown
7:53 PM 45.0 °F 41.2 °F 21.0 °F 39% 29.85 in - NNE 6.9 mph - N/A   Unknown
8:53 PM 39.9 °F 37.8 °F 19.9 °F 45% 29.86 in - ESE 3.5 mph - N/A   Unknown
9:53 PM 35.1 °F 30.1 °F 19.9 °F 54% 29.88 in - WSW 5.8 mph - N/A   Unknown
10:53 PM 36.0 °F 29.6 °F 21.9 °F 57% 29.86 in - SSW 8.1 mph - N/A   Unknown
11:53 PM 35.1 °F - 21.9 °F 59% 29.86 in - Calm Calm - N/A   Unknown